THORAD DELTA 1 DEB, 42592

Orbit data source: Space-Track

THORAD DELTA 1 DEB, 42592 is space debris in SSO originally from a launch on Fri, 15 Nov 1974 UTC launched from the Air Force Western Test Range (AFWTR). Debris objects in space refer to the collection of defunct objects orbiting the Earth. Examples of debris include non-operational satellites, rocket bodies, and fragments generated from explosions, collisions, or faulty payload assembly.

Loading next visibility...
Identifier
42592, 1974-089CW
Orbit
SSO
Country
Flag of USUS
Related business
Manufacturer
Unknown
Mission
Spacecraft
Bus & Motor
Unknown
Mass
Unknown
Launch date (UTC)
1974-11-15 (51 years ago)
Launch vehicle
Unknown
Launch site
Air Force Western Test Range (AFWTR)
Object type
Payload
Rocket body
Debris
Shape & HBR
Unknown shape, 0.1 m
Radar Cross Section
Small (<0.1 m²)

Expand to show TLE details & history
Last TLE update: 4 days ago

TLE from 4 days ago
0 THORAD DELTA 1 DEB
1 42592U 74089CW  26045.32361941  .00000025  00000-0  45948-3 0  9996
2 42592 101.8504 357.1822 0032516 115.0129 245.4324 12.50302453517380
Epoch: 2026-02-14T07:46Z
TLE epoch observation values (Epoch: 2026-02-14T07:46:00.717Z)
Latitude
0.00009°
Longitude
96.33088°
Altitude
1,476.47 km
Speed
7.12 km/s
True Right ascension
23h 48m 43s
True Declination
0° 00' 00"
Sunlit
Object was in daylight at epoch
Visualization orbit readout
Latitude
Unknown
Longitude
Unknown
Altitude
Unknown
Speed
Unknown
Apparent Right ascension
Unknown
Apparent Declination
Unknown
Sunlit
N/A
Visualization observer readout
Local Sidereal Time
05:16:10
Azimuth
Unknown
Elevation
Unknown
Doppler factor
Unknown
Orbital elements
Apogee altitude
1,486.271 km
Perigee altitude
1,435.293 km
Semi-major axis
7,838.919 km
Eccentricity
0.00325
Inclination
101.8504°
RAAN
357.1822°
Arg. of periapsis
115.0129°
True anomaly
245.0941°
Mean anomaly
245.4324°
Eccentric anomaly
245.26319°
Mean motion
3.12722 °/min
Orbital period
115.12 mins
BSTAR
0.00045948
Loading maneuver chart data...
Computing Atmospheric mass density...

Documentation

Showing up to 5 results
|